Regional Weather Roundup
Issued by NWS

Home | Current Version | Previous Version | Text Only | Print | Product List | Glossary Off
Versions: 1 2 3 4 5 6 7 8 9 10 11 12 13 14 15 16 17 18 19 20 21 22 23 24 25 26 27

000
ASUS45 KCYS 162010
RWRWY

WYOMING REGIONAL WEATHER ROUNDUP
NATIONAL WEATHER SERVICE CHEYENNE WY
100 PM MST SAT DEC 16 2017

NOTE:  "FAIR" INDICATES FEW OR NO CLOUDS BELOW 12,000 FEET
WITH NO SIGNIFICANT WEATHER AND/OR OBSTRUCTIONS TO VISIBILITY.

WYZ001-162100-
YELLOWSTONE NATIONAL PARK

CITY           SKY/WX    TMP DP  RH WIND       PRES   REMARKS
LK YELLOWSTONE   N/A     22  20  92 CALM      29.84S
W YELLOWSTONE  NOT AVBL

$$
WYZ002>013-054>058-071-098>099-162100-
NORTHERN WYOMING

CITY           SKY/WX    TMP DP  RH WIND       PRES   REMARKS
JACKSON        FLURRIES  29  22  75 NE8       29.83S WCI  21
CODY           LGT SNOW  30  27  86 N8        29.88R FOG     WCI  23
GREYBULL       LGT SNOW  33  32  96 NW3       29.87S VSB 1
WORLAND        SNOW      33  32  96 N3        29.85S VSB 1/2
SHERIDAN       LGT SNOW  31  29  92 NE3       29.95S VSB 1
BUFFALO        LGT SNOW  30  25  81 NE6       29.92S VSB 1   WCI  24
GILLETTE       CLOUDY    31  26  82 NE12      29.91F WCI  22
HULETT         CLOUDY    32  25  74 NE6       29.93F WCI  26
NEWCASTLE      LGT SNOW  32  32 100 CALM      29.89S VSB 3/4

$$
WYZ014>020-022>026-101>103-162100-
CENTRAL WYOMING

CITY           SKY/WX    TMP DP  RH WIND       PRES   REMARKS
BIG PINEY      FLURRIES  31  26  82 VRB3      29.78F
PINEDALE       LGT SNOW  30  28  93 NW6       29.79F WCI  24
DUBOIS         LGT SNOW  27  23  86 SE9       29.78F WCI  17
LANDER         CLOUDY    30  27  88 NW10      29.80F WCI  21
RIVERTON       CLOUDY    31  29  92 NE8       29.81F WCI  23
CASPER         CLOUDY    30  28  92 NE7       29.84F FOG     WCI  23
DOUGLAS        CLOUDY    32  30  92 NE10      29.86F WCI  24

$$
WYZ021-027>030-104>119-162100-
SOUTHERN WYOMING

CITY           SKY/WX    TMP DP  RH WIND       PRES   REMARKS
EVANSTON       CLOUDY    31  26  82 N6        29.79F WCI  25
FORT BRIDGER   CLOUDY    35  25  67 N3        29.80F
ROCK SPRINGS   FAIR      37  23  56 SW7       29.77F WCI  32
DIXON          FAIR      33  17  51 CALM      29.80F
RAWLINS        CLOUDY    35  20  54 CALM      29.79F
SARATOGA       MOCLDY    32  19  59 NW8       29.78F WCI  25
LARAMIE        FAIR      31  19  61 SE6       29.77F WCI  25
CHEYENNE       FAIR      40  17  39 E9        29.81F WCI  34
TORRINGTON     FAIR      39  26  59 NE9       29.86F WCI  33
PINE BLUFFS    FAIR      43  19  39 MISG      29.83F

$$




USA.gov is the U.S. government's official web portal to all federal, state and local government web resources and services.